Regional Weather Roundup
Issued by NWS Charleston, SC

Current Version | Previous Version | Text Only | Print | Product List | Glossary On
Versions: 1 2 3 4 5 6 7 8 9 10 11 12 13 14 15 16 17 18 19 20 21 22 23 24 25 26 27 28 29 30 31 32 33 34 35 36 37 38 39 40 41 42 43 44 45 46 47 48 49 50
000 ASUS42 KCHS 021727 RWRCHS REGIONAL WEATHER ROUNDUP NATIONAL WEATHER SERVICE CHARLESTON SC 100 PM EDT TUE JUN 02 2015 NOTE: "FAIR" INDICATES FEW OR NO CLOUDS BELOW 12,000 FEET WITH NO SIGNIFICANT WEATHER AND/OR OBSTRUCTIONS TO VISIBILITY. NOT ALL STATIONS ARE QUALITY CONTROLLED BY THE NATIONAL WEATHER SERVICE. USE DATA WITH CAUTION...ESPECIALLY DEWPOINT OBSERVATIONS. SCZ027-030-031-034>040-042>050-021800- ...SOUTHEAST SOUTH CAROLINA... CITY SKY/WX TMP DP RH WIND PRES REMARKS N CHARLESTON TSTM 77 70 78 CALM 30.01F WATERFRONT PAR N/A 80 72 76 SE8 29.98F MOUNT PLEASANT FAIR 84 72 65 S8 30.01F JOHNS ISLAND PTSUNNY 84 70 61 S7 30.01S PINOPOLIS N/A 84 72 65 VRB3 29.92F MONCKS CORNER LGT RAIN 81 68 65 SE5 30.00F SUMMERVILLE FAIR 86 70 58 SW5 30.00F HX 90 BEAUFORT MCAS CLOUDY 82 67 60 W8 30.01F BEAUFORT ARPT FAIR 81 70 69 SW5 30.01S HILTON HEAD IS DRIZZLE 77 75 94 SE6 30.03F WALTERBORO CLOUDY 82 66 57 SW7 30.00F ALLENDALE FAIR 82 68 61 CALM 30.00F ...SOUTHERN MIDLANDS AND PEE DEE... CITY SKY/WX TMP DP RH WIND PRES REMARKS GEORGETOWN NOT AVBL KINGSTREE NOT AVBL ORANGEBURG PTSUNNY 81 66 60 VRB5 30.01F BARNWELL PTSUNNY 84 68 58 SE7 30.01F AIKEN PTSUNNY 81 61 50 S3 30.05F MANNING FAIR 82 61 47 SE5 30.00F COLUMBIA PTSUNNY 82 66 58 W6 30.01F SUMTER PTSUNNY 83 66 55 VRB6 30.00F FLORENCE MOSUNNY 82 65 56 S7 30.02F MYRTLE BEACH PTSUNNY 73 66 78 CALM 30.06S N MYRTLE BEACH LGT RAIN 75 71 87 W6 30.03F $$ GAZ063-065-086>088-099>101-113>116-118-119-134>141-150-021800- ...SOUTHEAST GEORGIA... CITY SKY/WX TMP DP RH WIND PRES REMARKS SAVANNAH ARPT CLOUDY 81 68 64 VRB3 30.01F HUNTER AAF LGT RAIN 84 72 65 CALM 29.98F FORT STEWART CLOUDY 82 70 66 VRB3 29.99F STATESBORO PTSUNNY 82 73 73 CALM 30.00F SYLVANIA PTSUNNY 85 71 63 SW5 30.01F HX 90 CLAXTON FAIR 82 70 65 CALM 30.01F ...CSRA...CENTRAL AND FAR SOUTHEAST GEORGIA... CITY SKY/WX TMP DP RH WIND PRES REMARKS THOMSON MOSUNNY 84 71 64 SE3 30.05F AUGUSTA-BUSH PTSUNNY 81 68 64 VRB3 30.00F AUGUSTA-DANIEL PTSUNNY 82 67 60 S6 30.02F SWAINSBORO FAIR 84 70 61 CALM 30.02F VIDALIA MOSUNNY 82 68 61 CALM 30.01F EASTMAN PTSUNNY 84 69 60 SW3 30.04F HAZLEHURST FAIR 84 70 63 CALM 30.00F ALMA PTSUNNY 81 69 67 CALM 30.01F WAYCROSS CLOUDY 82 73 75 CALM 30.02S JESUP FAIR 86 73 66 CALM 30.02S HX 93 BAXLEY FAIR 84 70 61 CALM 30.01S BRUNSWICK CLOUDY 82 70 65 CALM 30.01F SAINT SIMONS NOT AVBL $$ SCZ027-028-034-036>038-045-046-048>050-GAZ119-141-021800- ...LAKE AND SUPPLEMENTAL COASTAL OBSERVATIONS... STATION/POSITION TIME TEMP WIND PRES WAVE SWELL AIR SEA DIR/SP/G HT/PER HT/PER/DIR (UTC) (F) (DEG/KT/KT) (MB) (FT/S) (FT/S/D) UPR LAKE MARION NOT AVBL WINYAH BAY 1600 75 70/ 5 1016.0S LAKE MURRAY 1600 78 150/ 2/ 4 1016.3S ACE BASIN NERRS NOT AVBL FORT PULASKI 1700 80 81 150/ 5/ 7 1016.7F SAPELO ISLAND 1700 84 110/ 5 1016.0F $$ ANZ835-935-AMZ111-154-330-350-352-354-370-450-454-472-021800- ...C-MAN AND BUOY OBSERVATIONS... STATION/POSITION TIME TEMP WIND PRES WAVE SWELL AIR SEA DIR/SP/G HT/PER HT/PER/DIR (UTC) (F) (DEG/KT/KT) (MB) (FT/S) (FT/S/D) BUOY 41004 1650 77 80 120/ 4/ 6 1016.7F 3/ 8 3/ 8 BUOY 41008 1650 78 81 140/ 4/ 4 1016.8F 2/ 8 2/110/ 8 FOLLY BEACH CMAN 1700 80 180/ 8/ 10 1016.4F CAPERS NEARSHORE 1608 78 190/ 10/ 12 1017.1F FRIPP NEARSHORE 1600 81 220/ 6/ 8 1016.6F STATION/POSITION TIME TEMP WIND PRES WAVE SWELL AIR SEA DIR/SP/G HT/PER HT/PER/DIR (UTC) (F) (DEG/KT/KT) (MB) (FT/S) (FT/S/D) 5E ST. MARYS GA 1651 83 N/A 2/ 9 FRYING PAN BUOY 1650 79 79 190/ 2/ 2 1017.9F 3/ 8 3/110/ 8 BUOY 41025 1650 78 82 190/ 6/ 8 1017.0F 2/ 9 2/ 60/ 9 CAPE LOOKOUT NC 1700 80 210/ 10/ 12 1016.6F BUOY 41002 1650 77 79 190/ 2/ 4 1018.4F 3/ 8 3/ 90/ 8 BUOY 41010 1620 79 81 130/ 6/ 8 1017.7F ST AUGUSTINE FL 1700 77 77 150/ 8/ 9 1017.4S $$

USA.gov is the U.S. government's official web portal to all federal, state and local government web resources and services.